Hibbing, MN

4:58 AM CDT on August 17, 2017 (GMT -0500)
Chisholm-hibbing

Weather History for KHIB - February, 2013

Change the Weather History Date:

Monday, February 4, 2013

  Actual Average Record
Temperature  
Mean Temperature -8 °F -  
Max Temperature 8 °F 18 °F 46 °F (1991)
Min Temperature -25 °F -5 °F -36 °F (1989)
Degree Days  
Heating Degree Days 74    
Moisture  
Dew Point -10 °F    
Average Humidity 70    
Maximum Humidity 92    
Minimum Humidity 51    
Precipitation  
Precipitation 0.06 in - - ()
Sea Level Pressure  
Sea Level Pressure 29.91 in    
Wind  
Wind Speed 2 mph (SSE)    
Max Wind Speed 8 mph    
Max Gust Speed -    
Visibility 7 miles    
Events Snow    
Averages and records for this station are not official NWS values.
T = Trace of Precipitation, MM = Missing Value Source: NWS Daily Summary

Daily Weather History Graph

Daily Weather History Graph

Search for Another Location

Airport or City:

Trip Planner

Search our weather history database for the weather conditions in past years. The results will help you decide how hot, cold, wet, or windy it might be!

Date:

Astronomy

Feb. 04, 2013 Rise Set
Actual Time 7:32 AM CST 5:18 PM CST
Civil Twilight 7:00 AM CST 5:50 PM CST
Nautical Twilight 6:23 AM CST 6:27 PM CST
Astronomical Twilight 5:48 AM CST 7:03 PM CST
Moon 2:14 AM CST (2/4) 11:36 AM CST (2/4)
Length of Visible Light 10h 50m
Length of Day
9h 45m
Last Quarter, 37% of the Moon is Illuminated
Feb 4
Last Quarter
Feb 10
New
Feb 17
First Quarter
Feb 25
Full
Mar 4
Last Quarter

Hourly Weather History & Observations

Time (CST) Temp. Windchill Dew Point Humidity Pressure Visibility Wind Dir Wind Speed Gust Speed Precip Events Conditions
12:53 AM -18.9 °F - -26.0 °F 70% 30.10 in 10.0 mi Calm Calm - N/A   Clear
1:53 AM -22.0 °F - -27.9 °F 74% 30.11 in 10.0 mi Calm Calm - N/A   Clear
2:53 AM -24.0 °F -35.2 °F -29.9 °F 74% 30.11 in 10.0 mi NNW 3.5 mph - N/A   Clear
5:53 AM -23.1 °F - -29.9 °F 70% 30.12 in 9.0 mi Calm Calm - N/A   Clear
6:53 AM -25.1 °F - -32.1 °F 70% 30.13 in 10.0 mi Calm Calm - N/A   Clear
7:53 AM -25.1 °F - -32.1 °F 70% 30.12 in 10.0 mi Calm Calm - N/A   Clear
8:53 AM -20.9 °F - -26.0 °F 77% 30.14 in 9.0 mi Calm Calm - 0.00 in   Clear
9:22 AM -16.6 °F - -18.4 °F 92% 29.97 in 10.0 mi Calm Calm - N/A   Scattered Clouds
9:30 AM -14.8 °F - -18.4 °F 84% 29.97 in 10.0 mi Calm Calm - N/A   Mostly Cloudy
9:53 AM -9.9 °F - -15.0 °F 78% 30.12 in 10.0 mi Calm Calm - N/A   Overcast
10:43 AM -2.2 °F - -7.6 °F 78% 29.96 in 10.0 mi Calm Calm - N/A   Scattered Clouds
10:53 AM -0.9 °F - -8.0 °F 72% 30.11 in 10.0 mi Calm Calm - N/A   Clear
11:18 AM 1.4 °F - -7.6 °F 66% 29.96 in 7.0 mi Calm Calm - 0.00 in   Mostly Cloudy
11:25 AM 1.4 °F - -9.4 °F 61% 29.96 in 5.0 mi Calm Calm - 0.00 in   Haze
11:53 AM 1.9 °F -5.6 °F -8.0 °F 63% 30.08 in 10.0 mi Variable 3.5 mph - 0.00 in   Overcast
12:53 PM 5.0 °F -5.6 °F -7.1 °F 58% 30.05 in 10.0 mi Variable 5.8 mph - N/A   Overcast
1:53 PM 6.1 °F - -8.0 °F 53% 30.02 in 10.0 mi Calm Calm - N/A   Overcast
2:53 PM 8.1 °F -2.0 °F -6.0 °F 53% 30.01 in 10.0 mi WSW 5.8 mph - N/A   Overcast
3:53 PM 7.0 °F -1.7 °F -8.0 °F 51% 29.98 in 10.0 mi Variable 4.6 mph - N/A   Overcast
4:53 PM 7.0 °F -1.7 °F -8.0 °F 51% 29.94 in 10.0 mi South 4.6 mph - N/A   Overcast
5:53 PM 3.9 °F - -8.0 °F 58% 29.93 in 10.0 mi Calm Calm - N/A   Clear
6:53 PM -2.0 °F -10.1 °F -9.9 °F 69% 29.92 in 10.0 mi SSE 3.5 mph - N/A   Clear
7:53 PM 5.0 °F -4.1 °F -7.1 °F 58% 29.88 in 10.0 mi SSE 4.6 mph - N/A   Overcast
8:53 PM 7.0 °F -3.3 °F -5.1 °F 58% 29.85 in 8.0 mi South 5.8 mph - N/A   Overcast
9:12 PM 6.8 °F -0.1 °F -2.2 °F 67% 29.71 in 3.0 mi South 3.5 mph - 0.00 in Snow Light Snow
9:17 PM 6.8 °F -3.5 °F -2.2 °F 67% 29.71 in 1.8 mi South 5.8 mph - 0.00 in Snow Light Snow
9:50 PM 6.8 °F -3.5 °F -0.4 °F 72% 29.68 in 1.0 mi South 5.8 mph - 0.00 in Snow Light Snow
9:53 PM 6.1 °F -5.6 °F -0.0 °F 76% 29.80 in 0.8 mi SSE 6.9 mph - 0.00 in Snow Light Snow
10:04 PM 6.8 °F -3.5 °F 1.4 °F 79% 29.66 in 0.5 mi SSE 5.8 mph - 0.01 in Snow Snow
10:19 PM 6.8 °F -4.8 °F 1.4 °F 79% 29.65 in 1.0 mi SSE 6.9 mph - 0.01 in Snow Light Snow
10:31 PM 6.8 °F -3.5 °F 1.4 °F 79% 29.65 in 0.8 mi SSE 5.8 mph - 0.02 in Snow Light Snow
10:41 PM 6.8 °F -5.9 °F 1.4 °F 79% 29.63 in 0.8 mi SSE 8.1 mph - 0.02 in Snow Light Snow
10:53 PM 7.0 °F -5.7 °F 1.0 °F 77% 29.74 in 0.5 mi SSE 8.1 mph - 0.03 in Snow Snow
11:15 PM 6.8 °F -5.9 °F 1.4 °F 79% 29.61 in 1.0 mi SSE 8.1 mph - 0.02 in Snow Light Snow
11:35 PM 8.6 °F -1.3 °F 1.4 °F 73% 29.60 in 1.0 mi SSE 5.8 mph - 0.02 in Snow Light Snow
11:53 PM 8.1 °F -0.5 °F 3.0 °F 80% 29.71 in 2.0 mi South 4.6 mph - 0.03 in Snow Light Snow